LEMUR-2-DAYWZAGOODDAY

Last updated on Thu Oct 29 2020 00:02:02 GMT+0000 (Coordinated Universal Time)

1 46501U 20068R 20302.58888458 .00000376 00000-0 33127-4 0 9999 2 46501 97.6673 235.7466 0012510 143.0136 217.1975 15.02157387 4438
UTC large
Height (km)
Speed (km/s)
/
Latitude / Longitude
Inclination (degrees)
Orbital Period (minutes)
Azimuth
Elevation
Range (km)
Doppler Factor

Next 0 passes for location: London (51.5072 / 0.1276)

Sorry there are no passes over London.